STARLINK-2232 (48578 NORAD) Tracking and Keplerian Element Data

This shows tracking and keplerian element data for the satellite.

Feedback or suggestion? Click here.




ElementValue
Catalog48578
NameSTARLINK-2232
Epoch Orbit1248
Epoch Day215.00258273
Epoch Year2021
RAAN112.0137
Inclination53.0541
Eccentricity0.0001922
Argument of Perigee81.6965
Mean Anonmoly278.4242
Mean Motion15.0639296
Decay Rate-7.16E-06
L11 48578U 21041AB 21215.00258273 -.00000716 00000-0 -29174-4 0 9991
L22 48578 53.0541 112.0137 0001922 81.6965 278.4242 15.06392960 12481

Live tracking and technical data element details for STARLINK-2232 (NORAD 48578). STARLINK-2232 can be tracked NOW for your location showing map with azimuth and elevation plus other details from your city location.

Track the satellite on the map from your city or location and see movement details for azimuth, elevation, latitude, longitude, range, height, and movement on the map or in text.







IsCatalogInMostPopularTable: catalog: 48578, numindb: 18
Update: records affected: 1



GetName: 48578 STARLINK-2232

Hit Count: updated at: Tue, 03 Aug 2021 20:40:26 GMT